[[{"header":{"parameterUnit":"m.s-1","parameterCategory":1,"la1":30.2991,"la2":30.254,"lo1":-89.0895,"lo2":-89.0444,"dy":0.0017,"dx":0.0017,"nx":28,"ny":28,"refTime":"2026-01-08T03:00:00:Z","depth":0,"parameterNumber":2,"parameterNumberName":"U-component_of_WINDS"},"data":[0,0,0,0,0,0,0,0,0,0,0,0,0,0,0,0,0,0,0,0,0,0,0,0,0,0,0,0,0,0,0,0,0,0,0,0,0,0,0,0,0,0,0,0,0,0,0,0,0,0,0,0,0,0,0,0,0,0,-2.7578,-2.7579,0,-2.7679,-2.768,-2.7681,-2.7727,-2.7726,-2.7726,-2.7726,-2.7829,-2.7832,-2.7835,0,0,0,0,0,0,0,0,0,0,0,0,0,-2.7424,-2.7427,-2.7578,-2.7579,-2.7581,-2.7679,-2.768,-2.7682,-2.7727,-2.7726,-2.7726,-2.7726,-2.7828,-2.7831,-2.7835,0,0,0,0,0,0,0,0,0,0,0,0,0,-2.7505,-2.7428,-2.7578,-2.7615,-2.7619,-2.7679,-2.768,-2.7682,-2.7727,-2.7726,-2.7726,-2.7726,-2.7827,-2.7831,-2.7835,-2.7865,0,0,-2.7848,-2.785,0,0,0,0,0,0,0,0,-2.75,-2.751,-2.7608,-2.7612,-2.7617,-2.769,-2.7664,-2.7743,-2.7727,-2.7686,-2.7726,-2.7726,-2.7783,-2.7791,-2.781,-2.787,-2.7875,-2.7849,-2.7851,-2.7853,-2.7854,0,0,0,0,0,0,0,-2.7494,-2.7506,-2.7618,-2.761,-2.7615,-2.7626,-2.7638,-2.7679,-2.7734,-2.7689,-2.7693,-2.7704,-2.7785,-2.7806,-2.7813,-2.7876,-2.7849,-2.7852,-2.7855,-2.7857,-2.7967,-2.7967,0,0,0,0,0,0,-2.7483,-2.7501,-2.7615,-2.7621,-2.7557,-2.7629,-2.7642,-2.7667,-2.7734,-2.7744,-2.7704,-2.7706,-2.7799,-2.7808,-2.7817,-2.7857,-2.7853,-2.7857,-2.786,-2.7967,-2.7967,-2.7968,0,0,0,0,0,0,-2.7479,-2.7492,-2.7611,-2.7562,-2.7578,-2.7632,-2.766,-2.7669,-2.769,-2.7745,-2.7755,-2.7715,-2.7799,-2.7811,-2.7853,-2.7861,-2.7859,-2.7863,-2.7966,-2.7967,-2.7967,-2.7937,0,0,0,0,0,0,-2.7475,-2.7491,-2.7503,-2.7562,-2.758,-2.7645,-2.766,-2.7671,-2.7697,-2.77,-2.7758,-2.7767,-2.78,-2.7847,-2.7857,-2.7867,-2.7866,-2.7966,-2.7967,-2.7967,-2.7937,-2.7936,-2.7935,0,0,0,0,0,-2.7469,-2.749,-2.7503,-2.7517,-2.7596,-2.7646,-2.7656,-2.7693,-2.7697,-2.771,-2.7746,-2.7765,-2.7858,-2.7851,-2.7863,-2.7874,-2.7965,-2.7966,-2.7967,-2.7938,-2.7936,-2.7935,0,0,0,0,0,0,-2.7429,-2.7498,-2.7514,-2.7554,-2.7594,-2.7653,-2.767,-2.769,-2.7729,-2.7731,-2.7775,-2.7788,-2.7826,-2.7855,-2.7845,-2.7907,-2.7914,-2.7917,-2.7887,-2.7886,-2.7885,-2.7878,-2.787,0,0,0,0,0,-2.7425,-2.746,-2.7518,-2.7548,-2.7568,-2.7615,-2.7638,-2.7663,-2.7706,-2.7723,-2.7762,-2.7802,-2.7841,-2.7865,-2.7904,-2.7942,-2.7956,-2.7956,-2.7955,-2.7954,-2.7956,-2.7979,-2.798,-2.797,-2.797,-2.797,0,0,-2.7418,-2.7459,-2.7478,-2.7542,-2.7575,-2.761,-2.7629,-2.7665,-2.7691,-2.7728,-2.7771,-2.7801,-2.7849,-2.789,-2.791,-2.7915,-2.7962,-2.7955,-2.7953,-2.7956,-2.798,-2.7981,-2.7982,-2.7971,-2.7971,-2.7971,0,0,-2.7421,-2.7456,-2.7485,-2.7519,-2.757,-2.7602,-2.7609,-2.7665,-2.7687,-2.7731,-2.7759,-2.7792,-2.7857,-2.789,-2.7916,-2.7933,-2.7953,-2.7944,-2.7939,-2.7961,-2.7962,-2.7963,-2.7969,-2.7971,-2.7947,-2.7946,-2.7946,0,-2.7405,-2.7458,-2.7498,-2.7532,-2.7559,-2.7595,-2.7626,-2.7656,-2.7717,-2.7735,-2.7739,-2.7823,-2.7858,-2.7907,-2.7912,-2.7931,-2.7941,-2.7938,-2.7958,-2.796,-2.7961,-2.7968,-2.797,-2.7945,-2.7945,-2.7945,-2.7946,0,-2.7436,-2.7473,-2.749,-2.7548,-2.7578,-2.761,-2.7654,-2.7679,-2.7702,-2.7733,-2.7778,-2.7821,-2.787,-2.7883,-2.7906,-2.7936,-2.7938,-2.795,-2.7957,-2.796,-2.7967,-2.797,-2.7943,-2.7944,-2.7944,-2.7944,0,0,-2.7416,-2.7497,-2.7503,-2.753,-2.7589,-2.7618,-2.7652,-2.77,-2.7721,-2.7762,-2.7791,-2.7846,-2.7858,-2.7887,-2.7914,-2.7933,-2.7945,-2.7943,-2.7945,-2.7942,-2.7982,-2.7973,-2.7975,-2.7959,-2.7959,-2.796,-2.7978,0,-2.7428,-2.7491,-2.7528,-2.7575,-2.761,-2.7645,-2.7675,-2.7715,-2.7745,-2.7779,-2.7813,-2.7851,-2.7864,-2.7882,-2.7903,-2.7939,-2.7954,-2.7938,-2.7987,-2.7988,-2.7974,-2.7979,-2.7969,-2.7983,-2.7981,-2.7982,-2.7982,0,-2.745,-2.7491,-2.7541,-2.7598,-2.7614,-2.764,-2.7687,-2.7719,-2.7765,-2.7786,-2.7819,-2.7846,-2.7884,-2.7888,-2.7941,-2.793,-2.7953,-2.7974,-2.7975,-2.7981,-2.7985,-2.7985,-2.7989,-2.7991,-2.7987,-2.7986,-2.7986,0,-2.7431,-2.7498,-2.7538,-2.756,-2.7626,-2.7644,-2.7673,-2.7718,-2.7745,-2.7786,-2.7804,-2.7849,-2.7873,-2.7908,-2.7947,-2.7946,-2.7996,-2.8004,-2.8015,-2.8014,-2.8023,-2.8022,-2.8031,-2.8038,-2.8038,-2.8038,-2.8038,0,-2.744,-2.747,-2.753,-2.7555,-2.7589,-2.7632,-2.7665,-2.7697,-2.7737,-2.7769,-2.7802,-2.783,-2.788,-2.7915,-2.7945,-2.7985,-2.7996,-2.8014,-2.8022,-2.8011,-2.8009,-2.8026,-2.8026,-2.8038,-2.8038,-2.8038,-2.8038,0,-2.7425,-2.7466,-2.7512,-2.7571,-2.7587,-2.761,-2.7661,-2.7686,-2.7718,-2.7758,-2.7769,-2.782,-2.7863,-2.7906,-2.7963,-2.7984,-2.8023,-2.8034,-2.8007,-2.8012,-2.802,-2.8019,-2.8041,-2.8046,-2.8049,-2.8049,-2.8048,0,-2.7428,-2.7452,-2.7514,-2.7537,-2.7565,-2.7602,-2.763,-2.7673,-2.77,-2.7755,-2.7773,-2.7819,-2.7857,-2.7924,-2.7967,-2.8011,-2.8023,-2.8028,-2.803,-2.8019,-2.8024,-2.8022,-2.8024,-2.8026,-2.8026,-2.8026,-2.8026,0,-2.7429,-2.7449,-2.7487,-2.7532,-2.7564,-2.7602,-2.7641,-2.7659,-2.7709,-2.7738,-2.7783,-2.7813,-2.7872,-2.7917,-2.7967,-2.7996,-2.802,-2.8025,-2.803,-2.8019,-2.8003,-2.8012,-2.8004,-2.8024,-2.8024,-2.8024,-2.8025,-2.8025,-2.7423,-2.7446,-2.7494,-2.7535,-2.757,-2.7606,-2.7632,-2.7668,-2.7706,-2.7758,-2.7781,-2.7826,-2.7872,-2.7941,-2.7971,-2.8007,-2.8013,-2.802,-2.8022,-2.8023,-2.802,-2.7997,-2.8016,-2.8016,-2.8016,-2.8017,-2.8017,0,-2.7426,-2.7459,-2.7497,-2.755,-2.7583,-2.7603,-2.7647,-2.7674,-2.7713,-2.7754,-2.7791,-2.7843,-2.7887,-2.7933,-2.798,-2.8,-2.8012,-2.8011,-2.801,-2.8016,-2.8012,-2.8004,-2.8,-2.8,-2.8,-2.8,-2.8,-2.8,-2.7432,-2.7472,-2.7497,-2.7555,-2.7587,-2.7632,-2.7655,-2.7689,-2.7722,-2.7778,-2.7815,-2.7845,-2.7889,-2.7939,-2.7981,-2.7993,-2.8009,-2.8005,-2.802,-2.8016,-2.8017,-2.8018,-2.801,-2.8008,-2.8008,-2.8021,-2.8022,-2.8022]},{"header":{"parameterUnit":"m.s-1","parameterCategory":1,"la1":30.2991,"la2":30.254,"lo1":-89.0895,"lo2":-89.0444,"dy":0.0017,"dx":0.0017,"nx":28,"ny":28,"refTime":"2026-01-08T03:00:00:Z","depth":0,"parameterNumber":3,"parameterNumberName":"V-component_of_WINDS"},"data":[0,0,0,0,0,0,0,0,0,0,0,0,0,0,0,0,0,0,0,0,0,0,0,0,0,0,0,0,0,0,0,0,0,0,0,0,0,0,0,0,0,0,0,0,0,0,0,0,0,0,0,0,0,0,0,0,0,0,4.1304,4.1305,0,4.1426,4.1428,4.1429,4.1475,4.1474,4.1474,4.1474,4.1599,4.1602,4.1606,0,0,0,0,0,0,0,0,0,0,0,0,0,4.111,4.1114,4.1304,4.1305,4.1307,4.1426,4.1428,4.143,4.1475,4.1474,4.1474,4.1473,4.1597,4.1602,4.1606,0,0,0,0,0,0,0,0,0,0,0,0,0,4.121,4.1115,4.1303,4.1344,4.1349,4.1426,4.1428,4.143,4.1475,4.1474,4.1474,4.1473,4.1596,4.1601,4.1607,4.1653,0,0,4.1624,4.1626,0,0,0,0,0,0,0,0,4.1204,4.1217,4.1336,4.1341,4.1347,4.1435,4.1406,4.1505,4.1475,4.1427,4.1474,4.1473,4.1544,4.1554,4.1579,4.1659,4.1664,4.1624,4.1628,4.163,4.1631,0,0,0,0,0,0,0,4.1197,4.1212,4.1352,4.1338,4.1344,4.1356,4.137,4.1425,4.1487,4.1431,4.1435,4.1449,4.1547,4.1573,4.1582,4.1666,4.1624,4.1629,4.1632,4.1635,4.1793,4.1794,0,0,0,0,0,0,4.1183,4.1206,4.1348,4.1356,4.1273,4.136,4.1375,4.1407,4.1487,4.1499,4.1449,4.145,4.1564,4.1575,4.1586,4.1648,4.163,4.1635,4.1638,4.1793,4.1794,4.1795,0,0,0,0,0,0,4.1179,4.1196,4.1343,4.1282,4.1302,4.1364,4.1399,4.141,4.1436,4.1501,4.1512,4.1464,4.1564,4.1579,4.1637,4.1653,4.1638,4.1643,4.1792,4.1793,4.1794,4.177,0,0,0,0,0,0,4.1173,4.1194,4.1211,4.1282,4.1305,4.1391,4.14,4.1413,4.1445,4.1448,4.1517,4.1528,4.1565,4.1628,4.1642,4.166,4.1647,4.179,4.1792,4.1794,4.177,4.177,4.1771,0,0,0,0,0,4.1166,4.1199,4.1212,4.1229,4.1328,4.1392,4.1405,4.1446,4.1446,4.1465,4.1507,4.1526,4.1649,4.1634,4.165,4.167,4.179,4.1792,4.1794,4.1769,4.177,4.1771,0,0,0,0,0,0,4.1128,4.1209,4.1224,4.1281,4.1329,4.14,4.1424,4.1445,4.1495,4.1495,4.1544,4.1559,4.1614,4.1648,4.163,4.172,4.172,4.1726,4.1697,4.1698,4.1699,4.169,4.1652,0,0,0,0,0,4.1126,4.1171,4.1239,4.1282,4.1306,4.1361,4.139,4.1418,4.147,4.1491,4.1537,4.1587,4.1638,4.1669,4.1719,4.1775,4.1792,4.1796,4.1797,4.1797,4.1802,4.1837,4.1841,4.1801,4.1801,4.1801,0,0,4.1122,4.1172,4.1197,4.1276,4.1317,4.1364,4.1378,4.1426,4.1461,4.1498,4.1557,4.1593,4.1652,4.171,4.1738,4.1739,4.1816,4.18,4.1799,4.1804,4.1839,4.1843,4.1846,4.1803,4.1802,4.1802,0,0,4.114,4.1181,4.1223,4.1265,4.1327,4.1364,4.1374,4.1442,4.1467,4.1527,4.1557,4.1599,4.1684,4.1726,4.1758,4.1795,4.1815,4.1809,4.1813,4.1847,4.185,4.1853,4.1869,4.1873,4.1813,4.1813,4.1813,0,4.1127,4.1198,4.1242,4.1289,4.1324,4.1361,4.1405,4.1442,4.1517,4.1541,4.1542,4.1651,4.1693,4.1763,4.1772,4.1796,4.1811,4.1802,4.1846,4.1849,4.1853,4.1868,4.1874,4.1812,4.1812,4.1813,4.1813,0,4.1182,4.1231,4.1257,4.133,4.1368,4.1413,4.1464,4.1497,4.1522,4.1559,4.1621,4.1673,4.1735,4.1754,4.1777,4.1828,4.1827,4.1836,4.1838,4.1855,4.1871,4.1877,4.1811,4.1811,4.1812,4.1812,0,0,4.1177,4.1276,4.1285,4.132,4.1392,4.1431,4.1479,4.1541,4.1569,4.162,4.1663,4.1735,4.1745,4.1781,4.1811,4.184,4.1869,4.1846,4.1848,4.1851,4.1931,4.1925,4.1931,4.1883,4.1884,4.1885,4.1927,0,4.1206,4.1293,4.1335,4.1404,4.1452,4.1488,4.1531,4.158,4.1617,4.1663,4.1703,4.1754,4.1762,4.1785,4.1815,4.1859,4.1886,4.1856,4.1924,4.1926,4.191,4.1939,4.1932,4.1969,4.1933,4.1934,4.1935,0,4.125,4.1303,4.1377,4.1448,4.1469,4.1506,4.1568,4.1611,4.1669,4.1693,4.1736,4.1765,4.1818,4.1815,4.189,4.1869,4.1899,4.1925,4.1928,4.1937,4.1933,4.1951,4.1982,4.1988,4.1944,4.1943,4.1943,0,4.1242,4.1332,4.1389,4.1417,4.15,4.1525,4.1561,4.1619,4.1654,4.1708,4.1732,4.179,4.1823,4.1868,4.1913,4.1906,4.1985,4.1985,4.2009,4.2008,4.2024,4.2023,4.2063,4.204,4.204,4.204,4.204,0,4.1271,4.1315,4.1387,4.1422,4.1474,4.1522,4.1572,4.1611,4.1662,4.1707,4.1741,4.1782,4.1838,4.1886,4.1922,4.198,4.1994,4.2017,4.2026,4.2015,4.2012,4.2036,4.2036,4.2042,4.2041,4.2041,4.2041,0,4.127,4.132,4.1385,4.1459,4.1479,4.1514,4.1578,4.1614,4.1653,4.1709,4.1725,4.1786,4.1845,4.1894,4.1971,4.1995,4.2057,4.2066,4.2037,4.2042,4.2064,4.2062,4.2122,4.2134,4.2102,4.2102,4.2102,0,4.1286,4.1321,4.14,4.1433,4.1468,4.152,4.1557,4.1607,4.1644,4.1715,4.1743,4.1805,4.1857,4.195,4.2002,4.2062,4.2074,4.2091,4.2083,4.2072,4.2078,4.2076,4.2081,4.2092,4.2092,4.2092,4.2092,0,4.1309,4.1332,4.1384,4.1447,4.149,4.1541,4.1593,4.1617,4.1677,4.1718,4.1779,4.182,4.19,4.1962,4.2028,4.2065,4.209,4.2095,4.2104,4.2093,4.2076,4.2089,4.2041,4.2093,4.2093,4.2093,4.2093,4.2093,4.1318,4.1353,4.1415,4.1473,4.1518,4.1566,4.1605,4.165,4.1702,4.1772,4.1798,4.1862,4.1923,4.2014,4.2052,4.2103,4.2106,4.2119,4.2122,4.2125,4.2125,4.2067,4.2115,4.2115,4.2115,4.2115,4.2115,0,4.1345,4.1387,4.144,4.1513,4.1559,4.1579,4.1638,4.1676,4.1732,4.1786,4.1838,4.191,4.1971,4.2029,4.2093,4.2123,4.2136,4.2139,4.2138,4.2147,4.2117,4.2104,4.2127,4.2127,4.2127,4.2127,4.2127,4.2127,4.1364,4.1425,4.1457,4.1541,4.1583,4.1647,4.168,4.1725,4.177,4.1849,4.1901,4.1938,4.1995,4.2064,4.2122,4.2137,4.216,4.216,4.2179,4.215,4.2148,4.2147,4.2135,4.2164,4.2164,4.2204,4.2205,4.2205]}]]